Search your local weather  

 

Hazardous Weather Conditions

No active alerts for DENVER, COLORADO

Current Conditions: DENVER, COLORADO

Light Snow


19.0 F

Last Updated on Jan 19 2022, 9:55 pm MST
Humidity: 93%
Wind Speed: N 0.0 mph
Barometer 30.31 in
Dewpoint: 17.6 F
Visibility: 2.00 mi
Precip: --
Heat Index: NA
Wind Chill: NA
Current conditions at:

Broomfield / Jeffco, CO (KBJC)

Lat: 39.90085 Lon: -105.10417

Local Radar Image active severe weather and emergency alerts image image weather storm and storm spotter reports image weather observation monitoring service image
Local
Radar
Active
Alerts
Storm Reports Weather
Monitoring

5 Day Forecast for DENVER, COLORADO (80202)

Wednesday

Snow Likely
High 30 °F
Wednesday
Night
Mostly Cloudy

Low 16 °F
Thursday

Partly Sunny

High 41 °F
Thursday
Night
Snow

Low 23 °F
Friday

Snow Likely
High 43 °F
Friday
Night
Chance of Snow
Low 18 °F
Saturday

Mostly Sunny

High 42 °F
Saturday
Night
Mostly Clear

Low 23 °F
Sunday

Mostly Sunny

High 52 °F

Sign-up For Email & Text Message Weather Alert Notification Services



Advertise Here

Observation History for DENVER, COLORADO


Time Wind
(mph)
Vis
(mi)
Weather Precip (in) Temperature (F) Relative
Humidity
Wind
Chill
(F)
Heat
Index
(F)
Pressure
Air Dwpt altimeter
(in)
sea level
(mb)
9:55 pm MST N 0.0 2.00 Light Snow -- 19.0 17.6 93% NA NA 30.31 M
8:45 pm MST N 0.0 2.00 Light Snow -- 19.0 17.6 93% NA NA 30.31 M
6:59 pm MST NE 4.6 2.00 Light Snow -- 19.0 17.6 93% 12 NA 30.29 M
5:59 pm MST E 5.8 2.00 Light Snow -- 19.0 17.6 93% 11 NA 30.28 M
4:45 pm MST E 4.6 2.00 Light Freezing Drizzle -- 19.0 17.6 93% 12 NA 30.26 M
3:55 pm MST 3.5 2.00 Light Freezing Drizzle -- 19.0 19.4 100% NA NA 30.25 M
2:56 pm MST 3.5 2.00 Light Freezing Drizzle -- 19.0 19.4 100% NA NA 30.24 M
1:46 pm MST NE 6.9 1.00 Light Freezing Drizzle -- 21.0 19.4 93% 12 NA 30.23 M
11:51 am MST NE 8.1 0.50 Light Freezing Drizzle -- 21.0 21.2 100% 11 NA 30.24 M
10:45 am MST NE 11.5 0.13 Light Freezing Drizzle -- 23.0 21.2 93% 12 NA 30.25 M
9:55 am MST NE 9.2 1.00 Light Freezing Drizzle -- 25.0 24.8 100% 16 NA 30.21 M
8:55 am MST E 5.8 0.50 Light Freezing Drizzle -- 25.0 24.8 100% 18 NA 30.19 M
7:45 am MST E 5.8 0.13 Freezing Fog -- 25.0 24.8 100% 18 NA 30.14 M
6:45 am MST E 5.8 0.25 Freezing Fog -- 25.0 24.8 100% 18 NA 30.12 M
5:55 am MST E 5.8 4.00 Overcast -- 27.0 24.8 93% 20 NA 30.10 M
4:55 am MST E 5.8 4.00 Fog/Mist -- 27.0 26.6 100% 20 NA 30.08 M
4:35 am MST E 6.9 2.00 Fog/Mist -- 27.0 26.6 100% 20 NA 30.08 M
3:35 am MST NE 9.2 10.00 Overcast -- 28.0 26.6 93% 19 NA 30.10 M
2:55 am MST N 8.1 10.00 Overcast -- 28.0 26.6 93% 20 NA 30.08 M
2:35 am MST N 9.2 10.00 Overcast -- 28.0 26.6 93% 19 NA 30.08 M
1:55 am MST N 16.1 10.00 Mostly Cloudy -- 28.0 26.6 93% 16 NA 30.06 M
12:55 am MST N 11.5 10.00 Partly Cloudy -- 30.0 23.0 75% 20 NA 30.05 M
11:55 pm MST E 4.6 10.00 Fair -- 36.0 14.0 41% 32 NA 29.99 M
10:55 pm MST W 5.8 10.00 Fair -- 36.0 14.0 41% 31 NA 29.97 M

Regional Weather Observation

Erie Municipal Airport, CO (KEIK)

Overcast
20.0 F

Boulder Municipal Airport, CO (KBDU)

Overcast
21.0 F

Unknown Station (KC99)

Overcast
10.0 F

Vance Brand Airport, CO (KLMO)

Overcast
22.0 F

Berthoud Pass, CO (K0CO)

Overcast
5.0 F

Fort Collins/Loveland - Northern Colorado Regional Airport, CO (KFNL)

Light Snow
18.0 F

Advertise Here


Advertise Here